Time,TemperatureF,DewpointF,PressureIn,WindDirection,WindDirectionDegrees,WindSpeedMPH,WindSpeedGustMPH,Humidity,HourlyPrecipIn,Conditions,Clouds,dailyrainin,SoftwareType,DateUTC
2013-02-25 00:00:00,24.1,21.3,29.98,NNW,338,5.2,5.2,89,0.00,CLR,,0.01,WeatherDisplay:10.37,2013-02-25 05:00:00,
2013-02-25 00:01:00,24.1,21.3,29.98,NNW,338,5.2,5.8,89,0.00,RA,,0.00,WeatherDisplay:10.37,2013-02-25 05:01:00,
2013-02-25 00:04:00,24.1,21.3,29.98,NW,315,2.8,5.8,89,0.00,RA,,0.00,WeatherDisplay:10.37,2013-02-25 05:04:00,
2013-02-25 00:09:00,24.1,21.3,29.98,WNW,292,4.3,4.3,89,0.00,RA,,0.00,WeatherDisplay:10.37,2013-02-25 05:09:00,
2013-02-25 00:14:00,24.1,21.0,29.99,NW,315,3.1,3.1,88,0.00,CLR,,0.00,WeatherDisplay:10.37,2013-02-25 05:14:00,
2013-02-25 00:19:00,24.1,21.0,29.99,West,270,4.3,4.3,88,0.00,CLR,,0.00,WeatherDisplay:10.37,2013-02-25 05:19:00,
2013-02-25 00:24:00,24.1,21.0,29.99,WNW,292,2.4,6.9,88,0.00,CLR,,0.00,WeatherDisplay:10.37,2013-02-25 05:24:00,
2013-02-25 00:29:00,24.1,21.0,29.99,NNW,338,4.3,4.3,88,0.00,CLR,,0.00,WeatherDisplay:10.37,2013-02-25 05:29:00,
2013-02-25 00:34:00,24.1,21.0,29.99,NW,315,7.8,7.8,88,0.00,CLR,,0.00,WeatherDisplay:10.37,2013-02-25 05:34:00,
2013-02-25 00:39:00,24.1,21.0,29.99,NNW,338,1.8,3.5,88,0.00,CLR,,0.00,WeatherDisplay:10.37,2013-02-25 05:39:00,
2013-02-25 00:44:00,24.1,21.0,29.99,WNW,292,1.5,1.5,88,0.00,CLR,,0.00,WeatherDisplay:10.37,2013-02-25 05:44:00,
2013-02-25 00:49:00,24.1,21.0,29.99,NW,315,3.1,3.1,88,0.00,CLR,,0.00,WeatherDisplay:10.37,2013-02-25 05:49:00,
2013-02-25 00:54:00,24.1,21.0,29.99,WNW,292,2.1,2.3,88,0.00,CLR,,0.00,WeatherDisplay:10.37,2013-02-25 05:54:00,
2013-02-25 00:59:00,24.1,21.0,29.99,NW,315,5.5,5.8,88,0.00,CLR,,0.00,WeatherDisplay:10.37,2013-02-25 05:59:00,
2013-02-25 01:04:00,24.1,21.0,29.99,NW,315,5.2,5.2,88,0.00,CLR,,0.00,WeatherDisplay:10.37,2013-02-25 06:04:00,
2013-02-25 01:09:00,24.1,21.0,29.99,NW,315,2.1,5.8,88,0.00,CLR,,0.00,WeatherDisplay:10.37,2013-02-25 06:09:00,
2013-02-25 01:14:00,24.1,21.0,29.99,West,270,0.3,5.8,88,0.00,CLR,,0.00,WeatherDisplay:10.37,2013-02-25 06:14:00,
2013-02-25 01:19:00,24.1,21.0,29.99,WNW,292,1.2,2.3,88,0.00,CLR,,0.00,WeatherDisplay:10.37,2013-02-25 06:19:00,
2013-02-25 01:24:00,24.1,21.0,29.99,NNW,338,1.2,2.3,88,0.00,CLR,,0.00,WeatherDisplay:10.37,2013-02-25 06:24:00,
2013-02-25 01:29:00,24.1,21.3,29.99,NW,315,5.2,5.8,89,0.00,CLR,,0.00,WeatherDisplay:10.37,2013-02-25 06:29:00,
2013-02-25 01:34:00,24.1,21.0,29.99,NW,315,2.8,2.8,88,0.00,CLR,,0.00,WeatherDisplay:10.37,2013-02-25 06:34:00,
2013-02-25 01:39:00,24.1,21.0,29.99,NNW,338,1.5,1.5,88,0.00,CLR,,0.00,WeatherDisplay:10.37,2013-02-25 06:39:00,
2013-02-25 01:44:00,24.3,21.2,29.99,NW,315,1.8,3.5,88,0.00,CLR,,0.00,WeatherDisplay:10.37,2013-02-25 06:44:00,
2013-02-25 01:49:00,24.3,21.2,30.00,NW,315,2.8,5.8,88,0.00,CLR,,0.00,WeatherDisplay:10.37,2013-02-25 06:49:00,
2013-02-25 01:54:00,24.3,21.2,30.00,NW,315,7.0,7.0,88,0.00,CLR,,0.00,WeatherDisplay:10.37,2013-02-25 06:54:00,
2013-02-25 01:59:00,24.3,21.2,30.00,NW,315,4.0,4.6,88,0.00,CLR,,0.00,WeatherDisplay:10.37,2013-02-25 06:59:00,
2013-02-25 02:04:00,24.3,21.2,30.00,WNW,292,2.1,3.5,88,0.00,CLR,,0.00,WeatherDisplay:10.37,2013-02-25 07:04:00,
2013-02-25 02:09:00,24.3,21.2,30.00,NNW,338,0.6,2.3,88,0.00,CLR,,0.00,WeatherDisplay:10.37,2013-02-25 07:09:00,
2013-02-25 02:14:00,24.3,20.9,30.00,NW,315,2.1,2.3,87,0.00,CLR,,0.00,WeatherDisplay:10.37,2013-02-25 07:14:00,
2013-02-25 02:19:00,24.3,20.9,30.00,West,270,0.6,1.1,87,0.00,CLR,,0.00,WeatherDisplay:10.37,2013-02-25 07:19:00,
2013-02-25 02:24:00,24.3,20.9,30.00,West,270,0.3,1.1,87,0.00,CLR,,0.00,WeatherDisplay:10.37,2013-02-25 07:24:00,
2013-02-25 02:29:00,24.3,20.9,30.00,WNW,292,1.5,2.3,87,0.00,CLR,,0.00,WeatherDisplay:10.37,2013-02-25 07:29:00,
2013-02-25 02:34:00,24.4,21.1,30.00,WNW,292,0.6,1.1,87,0.00,CLR,,0.00,WeatherDisplay:10.37,2013-02-25 07:34:00,
2013-02-25 02:39:00,24.4,21.1,30.00,NW,315,0.9,3.5,87,0.00,CLR,,0.00,WeatherDisplay:10.37,2013-02-25 07:39:00,
2013-02-25 02:44:00,24.4,20.9,30.00,WNW,292,3.4,3.5,86,0.00,CLR,,0.00,WeatherDisplay:10.37,2013-02-25 07:44:00,
2013-02-25 02:49:00,24.4,20.9,30.00,WNW,292,2.1,2.1,86,0.00,CLR,,0.00,WeatherDisplay:10.37,2013-02-25 07:49:00,
2013-02-25 02:54:00,24.4,20.9,30.00,NW,315,1.8,3.5,86,0.00,CLR,,0.00,WeatherDisplay:10.37,2013-02-25 07:54:00,
2013-02-25 02:59:00,24.4,20.9,30.00,WNW,292,2.4,2.4,86,0.00,CLR,,0.00,WeatherDisplay:10.37,2013-02-25 07:59:00,
2013-02-25 03:04:00,24.4,20.9,30.00,NW,315,1.8,5.8,86,0.00,CLR,,0.00,WeatherDisplay:10.37,2013-02-25 08:04:00,
2013-02-25 03:09:00,24.4,20.9,30.00,NW,315,2.8,6.9,86,0.00,CLR,,0.00,WeatherDisplay:10.37,2013-02-25 08:09:00,
2013-02-25 03:14:00,24.4,20.9,30.00,NW,315,2.4,2.4,86,0.00,CLR,,0.00,WeatherDisplay:10.37,2013-02-25 08:14:00,
2013-02-25 03:19:00,24.4,20.9,30.00,NW,315,1.2,2.3,86,0.00,CLR,,0.00,WeatherDisplay:10.37,2013-02-25 08:19:00,
2013-02-25 03:24:00,24.4,20.9,30.00,NNW,338,0.6,2.3,86,0.00,CLR,,0.00,WeatherDisplay:10.37,2013-02-25 08:24:00,
2013-02-25 03:29:00,24.4,20.9,30.00,NW,315,2.8,2.8,86,0.00,CLR,,0.00,WeatherDisplay:10.37,2013-02-25 08:29:00,
2013-02-25 03:34:00,24.3,20.7,29.99,NNW,338,1.2,1.2,86,0.00,CLR,,0.00,WeatherDisplay:10.37,2013-02-25 08:34:00,
2013-02-25 03:39:00,24.3,20.7,30.00,WNW,292,3.4,3.4,86,0.00,CLR,,0.00,WeatherDisplay:10.37,2013-02-25 08:39:00,
2013-02-25 03:44:00,24.3,20.7,30.00,NNW,338,4.3,4.3,86,0.00,CLR,,0.00,WeatherDisplay:10.37,2013-02-25 08:44:00,
2013-02-25 03:49:00,24.3,20.7,30.00,NW,315,2.4,6.9,86,0.00,CLR,,0.00,WeatherDisplay:10.37,2013-02-25 08:49:00,
2013-02-25 03:54:00,24.1,20.5,30.00,NNW,338,1.2,2.3,86,0.00,CLR,,0.00,WeatherDisplay:10.37,2013-02-25 08:54:00,
2013-02-25 03:59:00,24.1,20.5,30.00,NNW,338,0.6,3.5,86,0.00,CLR,,0.00,WeatherDisplay:10.37,2013-02-25 08:59:00,
2013-02-25 04:04:00,24.1,20.8,30.00,WNW,292,3.1,3.1,87,0.00,CLR,,0.00,WeatherDisplay:10.37,2013-02-25 09:04:00,
2013-02-25 04:09:00,24.1,20.5,30.00,NNW,338,0.3,1.1,86,0.00,CLR,,0.00,WeatherDisplay:10.37,2013-02-25 09:09:00,
2013-02-25 04:14:00,24.1,20.8,30.00,NW,315,0.9,1.1,87,0.00,CLR,,0.00,WeatherDisplay:10.37,2013-02-25 09:14:00,
2013-02-25 04:19:00,23.9,20.6,30.00,NW,315,0.0,4.6,87,0.00,CLR,,0.00,WeatherDisplay:10.37,2013-02-25 09:19:00,
2013-02-25 04:24:00,23.9,20.6,30.00,NNW,338,0.3,2.3,87,0.00,CLR,,0.00,WeatherDisplay:10.37,2013-02-25 09:24:00,
2013-02-25 04:29:00,23.9,20.6,30.00,NW,315,1.8,2.3,87,0.00,CLR,,0.00,WeatherDisplay:10.37,2013-02-25 09:29:00,
2013-02-25 04:34:00,23.9,20.6,30.00,NW,315,2.1,2.1,87,0.00,CLR,,0.00,WeatherDisplay:10.37,2013-02-25 09:34:00,
2013-02-25 04:39:00,23.7,20.4,30.00,NW,315,2.1,2.3,87,0.00,CLR,,0.00,WeatherDisplay:10.37,2013-02-25 09:39:00,
2013-02-25 04:44:00,23.7,20.4,30.00,NNW,338,0.6,1.1,87,0.00,CLR,,0.00,WeatherDisplay:10.37,2013-02-25 09:44:00,
2013-02-25 04:49:00,23.7,20.4,30.00,NNW,338,1.2,2.3,87,0.00,CLR,,0.00,WeatherDisplay:10.37,2013-02-25 09:49:00,
2013-02-25 04:54:00,23.7,20.4,30.00,NNW,338,0.9,1.1,87,0.00,CLR,,0.00,WeatherDisplay:10.37,2013-02-25 09:54:00,
2013-02-25 04:59:00,23.5,20.2,30.00,North,0,2.4,2.4,87,0.00,CLR,,0.00,WeatherDisplay:10.37,2013-02-25 09:59:00,
2013-02-25 05:04:00,23.4,20.1,30.00,NW,315,0.6,1.1,87,0.00,CLR,,0.00,WeatherDisplay:10.37,2013-02-25 10:04:00,
2013-02-25 05:09:00,23.4,20.1,30.00,NW,315,1.2,1.2,87,0.00,CLR,,0.00,WeatherDisplay:10.37,2013-02-25 10:09:00,
2013-02-25 05:14:00,23.0,19.7,30.00,NNW,338,0.6,1.1,87,0.00,CLR,,0.00,WeatherDisplay:10.37,2013-02-25 10:14:00,
2013-02-25 05:19:00,23.0,19.7,30.00,NNW,338,0.9,0.9,87,0.00,CLR,,0.00,WeatherDisplay:10.37,2013-02-25 10:19:00,
2013-02-25 05:24:00,23.0,19.4,30.00,NNW,338,0.9,0.9,86,0.00,CLR,,0.00,WeatherDisplay:10.37,2013-02-25 10:24:00,
2013-02-25 05:29:00,23.0,20.0,30.00,North,0,0.6,3.5,88,0.00,CLR,,0.00,WeatherDisplay:10.37,2013-02-25 10:29:00,
2013-02-25 05:34:00,23.0,20.0,30.00,NNW,338,0.6,1.1,88,0.00,CLR,,0.00,WeatherDisplay:10.37,2013-02-25 10:34:00,
2013-02-25 05:39:00,23.2,20.2,30.01,WNW,292,2.4,6.9,88,0.00,CLR,,0.00,WeatherDisplay:10.37,2013-02-25 10:39:00,
2013-02-25 05:44:00,23.4,20.3,30.02,NW,315,0.3,3.5,88,0.00,CLR,,0.00,WeatherDisplay:10.37,2013-02-25 10:44:00,
2013-02-25 05:49:00,23.7,20.7,30.02,WNW,292,0.0,1.1,88,0.00,CLR,,0.00,WeatherDisplay:10.37,2013-02-25 10:49:00,
2013-02-25 05:54:00,23.7,20.7,30.02,NNW,338,0.6,2.3,88,0.00,CLR,,0.00,WeatherDisplay:10.37,2013-02-25 10:54:00,
2013-02-25 05:59:00,23.9,20.6,30.02,NNW,338,1.5,1.5,87,0.00,CLR,,0.00,WeatherDisplay:10.37,2013-02-25 10:59:00,
2013-02-25 06:04:00,23.9,20.6,30.03,NNE,22,1.5,2.3,87,0.00,CLR,,0.00,WeatherDisplay:10.37,2013-02-25 11:04:00,
2013-02-25 06:09:00,24.1,20.5,30.03,NNW,338,0.3,1.1,86,0.00,CLR,,0.00,WeatherDisplay:10.37,2013-02-25 11:09:00,
2013-02-25 06:14:00,24.3,20.7,30.04,NNW,338,0.0,1.1,86,0.00,CLR,,0.00,WeatherDisplay:10.37,2013-02-25 11:14:00,
2013-02-25 06:19:00,24.3,20.7,30.04,North,0,0.6,1.1,86,0.00,CLR,,0.00,WeatherDisplay:10.37,2013-02-25 11:19:00,
2013-02-25 06:24:00,24.3,20.7,30.04,NNW,338,0.6,1.1,86,0.00,CLR,,0.00,WeatherDisplay:10.37,2013-02-25 11:24:00,
2013-02-25 06:29:00,24.3,20.7,30.04,North,0,1.5,3.5,86,0.00,CLR,,0.00,WeatherDisplay:10.37,2013-02-25 11:29:00,
2013-02-25 06:34:00,24.3,20.4,30.04,North,0,0.3,1.1,85,0.00,CLR,,0.00,WeatherDisplay:10.37,2013-02-25 11:34:00,
2013-02-25 06:39:00,24.3,20.4,30.04,North,0,2.4,2.4,85,0.00,CLR,,0.00,WeatherDisplay:10.37,2013-02-25 11:39:00,
2013-02-25 06:44:00,24.4,20.6,30.04,NNW,338,0.3,2.3,85,0.00,CLR,,0.00,WeatherDisplay:10.37,2013-02-25 11:44:00,
2013-02-25 06:49:00,24.3,20.4,30.04,NNW,338,0.3,1.1,85,0.00,CLR,,0.00,WeatherDisplay:10.37,2013-02-25 11:49:00,
2013-02-25 06:54:00,24.3,20.4,30.04,North,0,1.2,1.2,85,0.00,CLR,,0.00,WeatherDisplay:10.37,2013-02-25 11:54:00,
2013-02-25 06:59:00,24.3,20.4,30.04,NNW,338,0.9,1.1,85,0.00,CLR,,0.00,WeatherDisplay:10.37,2013-02-25 11:59:00,
2013-02-25 07:04:00,24.1,19.9,30.04,North,0,0.3,1.1,84,0.00,CLR,,0.00,WeatherDisplay:10.37,2013-02-25 12:04:00,
2013-02-25 07:09:00,24.1,19.9,30.04,North,0,0.0,1.1,84,0.00,CLR,,0.00,WeatherDisplay:10.37,2013-02-25 12:09:00,
2013-02-25 07:14:00,24.1,19.9,30.04,NNW,338,0.6,0.6,84,0.00,CLR,,0.00,WeatherDisplay:10.37,2013-02-25 12:14:00,
2013-02-25 07:19:00,23.9,19.8,30.03,NNW,338,1.5,1.5,84,0.00,CLR,,0.00,WeatherDisplay:10.37,2013-02-25 12:19:00,
2013-02-25 07:24:00,23.7,19.6,30.03,NNW,338,0.0,0.0,84,0.00,CLR,,0.00,WeatherDisplay:10.37,2013-02-25 12:24:00,
2013-02-25 07:29:00,23.7,19.9,30.03,NNW,338,0.0,0.0,85,0.00,CLR,,0.00,WeatherDisplay:10.37,2013-02-25 12:29:00,
2013-02-25 07:34:00,23.7,19.9,30.04,NNW,338,0.0,0.0,85,0.00,CLR,,0.00,WeatherDisplay:10.37,2013-02-25 12:34:00,
2013-02-25 07:39:00,23.5,19.7,30.04,NNW,338,0.0,0.0,85,0.00,CLR,,0.00,WeatherDisplay:10.37,2013-02-25 12:39:00,
2013-02-25 07:44:00,23.5,19.7,30.04,NNW,338,0.0,0.0,85,0.00,CLR,,0.00,WeatherDisplay:10.37,2013-02-25 12:44:00,
2013-02-25 07:50:00,23.7,19.9,30.05,NNW,338,0.0,0.0,85,0.00,CLR,CLR,0.00,WeatherDisplay:10.37,2013-02-25 12:50:00,
2013-02-25 07:56:00,23.9,20.0,30.05,NNW,338,0.0,0.0,85,0.00,CLR,,0.00,WeatherDisplay:10.37,2013-02-25 12:56:00,
2013-02-25 08:01:00,24.1,20.2,30.05,NNW,338,0.3,0.3,85,0.00,CLR,,0.00,WeatherDisplay:10.37,2013-02-25 13:01:00,
2013-02-25 08:07:00,24.1,20.2,30.05,NNW,338,0.6,1.1,85,0.00,CLR,,0.00,WeatherDisplay:10.37,2013-02-25 13:07:00,
2013-02-25 08:12:00,24.3,20.4,30.06,NNW,338,0.0,1.1,85,0.00,CLR,,0.00,WeatherDisplay:10.37,2013-02-25 13:12:00,
2013-02-25 08:17:00,24.4,20.6,30.06,NW,315,0.9,1.1,85,0.00,CLR,,0.00,WeatherDisplay:10.37,2013-02-25 13:17:00,
2013-02-25 08:22:00,24.4,20.6,30.06,NNW,338,0.9,1.1,85,0.00,CLR,,0.00,WeatherDisplay:10.37,2013-02-25 13:22:00,
2013-02-25 08:27:00,24.8,20.7,30.06,NNW,338,0.9,1.1,84,0.00,CLR,,0.00,WeatherDisplay:10.37,2013-02-25 13:27:00,
2013-02-25 08:32:00,24.8,20.4,30.06,NNW,338,0.3,1.1,83,0.00,CLR,,0.00,WeatherDisplay:10.37,2013-02-25 13:32:00,
2013-02-25 08:37:00,25.0,20.3,30.06,NW,315,0.0,1.1,82,0.00,CLR,,0.00,WeatherDisplay:10.37,2013-02-25 13:37:00,
2013-02-25 08:43:00,25.2,20.7,30.05,NW,315,1.5,1.5,83,0.00,CLR,,0.00,WeatherDisplay:10.37,2013-02-25 13:43:00,
2013-02-25 08:48:00,25.3,20.3,30.06,NW,315,0.6,2.3,81,0.00,CLR,,0.00,WeatherDisplay:10.37,2013-02-25 13:48:00,
2013-02-25 08:53:00,25.5,20.5,30.06,NW,315,1.8,1.8,81,0.00,CLR,,0.00,WeatherDisplay:10.37,2013-02-25 13:53:00,
2013-02-25 08:58:00,25.5,20.2,30.06,NW,315,1.5,1.5,80,0.00,CLR,,0.00,WeatherDisplay:10.37,2013-02-25 13:58:00,
2013-02-25 09:03:00,25.7,20.4,30.06,North,0,0.6,0.6,80,0.00,CLR,,0.00,WeatherDisplay:10.37,2013-02-25 14:03:00,
2013-02-25 09:09:00,26.1,21.0,30.06,NNW,338,0.0,1.1,81,0.00,CLR,,0.00,WeatherDisplay:10.37,2013-02-25 14:09:00,
2013-02-25 09:15:00,26.2,20.9,30.06,North,0,0.9,1.1,80,0.00,CLR,,0.00,WeatherDisplay:10.37,2013-02-25 14:15:00,
2013-02-25 09:20:00,26.6,21.6,30.07,NNW,334,0.0,2.0,81,0.00,CLR,CLR,0.00,WeatherDisplay:10.37,2013-02-25 14:20:00,
2013-02-25 09:26:00,27.0,21.3,30.06,NNW,338,0.6,4.6,79,0.00,CLR,,0.00,WeatherDisplay:10.37,2013-02-25 14:26:00,
2013-02-25 09:31:00,27.1,21.2,30.07,NW,315,3.4,3.4,78,0.00,CLR,,0.00,WeatherDisplay:10.37,2013-02-25 14:31:00,
2013-02-25 09:36:00,27.0,20.7,30.07,West,270,2.5,3.5,77,0.00,CLR,,0.00,WeatherDisplay:10.37,2013-02-25 14:36:00,
2013-02-25 09:41:00,27.0,21.0,30.07,WSW,248,1.5,2.3,78,0.00,CLR,,0.00,WeatherDisplay:10.37,2013-02-25 14:41:00,
2013-02-25 09:46:00,27.3,21.7,30.07,SW,225,1.5,2.3,79,0.00,CLR,,0.00,WeatherDisplay:10.37,2013-02-25 14:46:00,
2013-02-25 09:51:00,27.7,21.7,30.08,WNW,292,3.1,3.1,78,0.00,CLR,,0.00,WeatherDisplay:10.37,2013-02-25 14:51:00,
2013-02-25 09:56:00,28.2,21.9,30.08,NW,315,2.4,2.4,77,0.00,CLR,,0.00,WeatherDisplay:10.37,2013-02-25 14:56:00,
2013-02-25 10:01:00,28.4,21.8,30.08,North,0,0.0,2.3,76,0.00,CLR,,0.00,WeatherDisplay:10.37,2013-02-25 15:01:00,
2013-02-25 10:06:00,28.6,21.7,30.07,NNW,338,0.9,2.3,75,0.00,CLR,,0.00,WeatherDisplay:10.37,2013-02-25 15:06:00,
2013-02-25 10:11:00,28.8,21.8,30.07,West,270,2.8,2.8,75,0.00,CLR,,0.00,WeatherDisplay:10.37,2013-02-25 15:11:00,
2013-02-25 10:16:00,28.9,22.0,30.07,WNW,292,0.0,1.1,75,0.00,CLR,,0.00,WeatherDisplay:10.37,2013-02-25 15:16:00,
2013-02-25 10:21:00,29.1,21.9,30.07,NE,45,1.5,3.5,74,0.00,CLR,,0.00,WeatherDisplay:10.37,2013-02-25 15:21:00,
2013-02-25 10:26:00,29.1,22.2,30.07,East,90,0.3,1.1,75,0.00,CLR,,0.00,WeatherDisplay:10.37,2013-02-25 15:26:00,
2013-02-25 10:31:00,29.5,22.2,30.07,NNE,22,0.9,1.1,74,0.00,CLR,,0.00,WeatherDisplay:10.37,2013-02-25 15:31:00,
2013-02-25 10:36:00,29.8,22.6,30.07,NNE,22,0.6,1.1,74,0.00,CLR,,0.00,WeatherDisplay:10.37,2013-02-25 15:36:00,
2013-02-25 10:41:00,30.2,22.9,30.07,SE,135,4.0,4.0,74,0.00,CLR,,0.00,WeatherDisplay:10.37,2013-02-25 15:41:00,
2013-02-25 10:46:00,30.9,23.6,30.07,ENE,68,0.9,1.1,74,0.00,CLR,,0.00,WeatherDisplay:10.37,2013-02-25 15:46:00,
2013-02-25 10:51:00,31.1,23.1,30.07,SW,225,1.2,2.3,72,0.00,CLR,,0.00,WeatherDisplay:10.37,2013-02-25 15:51:00,
2013-02-25 10:56:00,31.3,23.6,30.07,SE,135,1.2,2.3,73,0.00,CLR,,0.00,WeatherDisplay:10.37,2013-02-25 15:56:00,
2013-02-25 11:01:00,31.8,24.1,30.07,SSW,202,2.1,2.3,73,0.00,CLR,,0.00,WeatherDisplay:10.37,2013-02-25 16:01:00,
2013-02-25 11:06:00,32.4,25.0,30.07,SW,225,0.0,2.3,74,0.00,CLR,,0.00,WeatherDisplay:10.37,2013-02-25 16:06:00,
2013-02-25 11:11:00,32.0,23.3,30.07,West,270,1.5,4.6,70,0.00,CLR,,0.00,WeatherDisplay:10.37,2013-02-25 16:11:00,
2013-02-25 11:16:00,32.0,23.3,30.06,SW,225,0.6,2.3,70,0.00,CLR,,0.00,WeatherDisplay:10.37,2013-02-25 16:16:00,
2013-02-25 11:21:00,32.2,23.5,30.06,South,180,6.1,6.1,70,0.00,CLR,,0.00,WeatherDisplay:10.37,2013-02-25 16:21:00,
2013-02-25 11:26:00,32.2,22.1,30.07,NW,315,0.6,2.3,66,0.00,CLR,,0.00,WeatherDisplay:10.37,2013-02-25 16:26:00,
2013-02-25 11:31:00,32.4,23.7,30.07,SW,225,3.1,4.6,70,0.00,CLR,,0.00,WeatherDisplay:10.37,2013-02-25 16:31:00,
2013-02-25 11:36:00,32.5,23.8,30.07,WSW,248,0.6,2.3,70,0.00,CLR,,0.00,WeatherDisplay:10.37,2013-02-25 16:36:00,
2013-02-25 11:41:00,33.1,24.0,30.06,WSW,248,0.6,2.3,69,0.00,CLR,,0.00,WeatherDisplay:10.37,2013-02-25 16:41:00,
2013-02-25 11:46:00,33.1,23.3,30.06,WNW,292,1.8,2.3,67,0.00,CLR,,0.00,WeatherDisplay:10.37,2013-02-25 16:46:00,
2013-02-25 11:51:00,33.1,23.7,30.05,ENE,68,0.9,2.3,68,0.00,CLR,,0.00,WeatherDisplay:10.37,2013-02-25 16:51:00,
2013-02-25 11:56:00,33.6,24.2,30.05,NW,315,1.2,1.2,68,0.00,CLR,,0.00,WeatherDisplay:10.37,2013-02-25 16:56:00,
2013-02-25 12:01:00,34.0,23.8,30.05,NNW,338,2.5,2.5,66,0.00,CLR,,0.00,WeatherDisplay:10.37,2013-02-25 17:01:00,
2013-02-25 12:06:00,33.8,23.3,30.05,WSW,248,2.4,2.4,65,0.00,CLR,,0.00,WeatherDisplay:10.37,2013-02-25 17:06:00,
2013-02-25 12:11:00,34.0,23.4,30.05,West,270,1.2,2.3,65,0.00,CLR,,0.00,WeatherDisplay:10.37,2013-02-25 17:11:00,
2013-02-25 12:16:00,34.2,24.0,30.05,NNW,338,1.5,2.3,66,0.00,CLR,,0.00,WeatherDisplay:10.37,2013-02-25 17:16:00,
2013-02-25 12:21:00,34.5,24.0,30.05,WNW,292,2.8,2.8,65,0.00,CLR,,0.00,WeatherDisplay:10.37,2013-02-25 17:21:00,
2013-02-25 12:26:00,34.5,24.0,30.05,WSW,248,3.7,3.7,65,0.00,CLR,,0.00,WeatherDisplay:10.37,2013-02-25 17:26:00,
2013-02-25 12:31:00,34.7,23.8,30.05,NNW,338,1.5,4.6,64,0.00,CLR,,0.00,WeatherDisplay:10.37,2013-02-25 17:31:00,
2013-02-25 12:36:00,34.9,23.9,30.05,NNW,338,1.5,3.5,64,0.00,CLR,,0.00,WeatherDisplay:10.37,2013-02-25 17:36:00,
2013-02-25 12:42:00,35.1,23.3,30.06,NW,315,2.4,5.8,62,0.00,CLR,,0.00,WeatherDisplay:10.37,2013-02-25 17:42:00,
2013-02-25 12:47:00,34.9,22.8,30.05,West,270,1.5,4.6,61,0.00,CLR,,0.00,WeatherDisplay:10.37,2013-02-25 17:47:00,
2013-02-25 12:52:00,34.9,23.2,30.05,ESE,112,2.4,3.5,62,0.00,CLR,,0.00,WeatherDisplay:10.37,2013-02-25 17:52:00,
2013-02-25 12:57:00,35.1,23.3,30.05,ENE,68,0.6,1.1,62,0.00,CLR,,0.00,WeatherDisplay:10.37,2013-02-25 17:57:00,
2013-02-25 13:02:00,35.6,23.9,30.04,ENE,68,4.6,4.6,62,0.00,CLR,,0.00,WeatherDisplay:10.37,2013-02-25 18:02:00,
2013-02-25 13:07:00,36.1,24.7,30.03,SE,135,2.1,2.3,63,0.00,CLR,,0.00,WeatherDisplay:10.37,2013-02-25 18:07:00,
2013-02-25 13:12:00,36.9,25.0,30.03,ENE,68,2.4,4.6,62,0.00,CLR,,0.00,WeatherDisplay:10.37,2013-02-25 18:12:00,
2013-02-25 13:17:00,36.7,24.1,30.02,NW,315,1.2,3.5,60,0.00,CLR,,0.00,WeatherDisplay:10.37,2013-02-25 18:17:00,
2013-02-25 13:22:00,37.0,25.2,30.02,East,90,1.5,2.3,62,0.00,CLR,,0.00,WeatherDisplay:10.37,2013-02-25 18:22:00,
2013-02-25 13:27:00,37.8,26.3,30.02,SW,225,1.5,2.3,63,0.00,CLR,,0.00,WeatherDisplay:10.37,2013-02-25 18:27:00,
2013-02-25 13:32:00,37.9,26.1,30.02,ESE,112,0.9,1.1,62,0.00,CLR,,0.00,WeatherDisplay:10.37,2013-02-25 18:32:00,
2013-02-25 13:37:00,38.7,27.1,30.02,SW,225,3.4,3.4,63,0.00,CLR,,0.00,WeatherDisplay:10.37,2013-02-25 18:37:00,
2013-02-25 13:42:00,38.8,25.3,30.01,SW,225,2.5,2.5,58,0.00,CLR,,0.00,WeatherDisplay:10.37,2013-02-25 18:42:00,
2013-02-25 13:47:00,39.0,25.9,30.02,SE,135,2.8,3.5,59,0.00,CLR,,0.00,WeatherDisplay:10.37,2013-02-25 18:47:00,
2013-02-25 13:52:00,39.6,24.3,30.02,East,90,1.2,2.3,54,0.00,CLR,,0.00,WeatherDisplay:10.37,2013-02-25 18:52:00,
2013-02-25 13:57:00,39.7,26.6,30.02,SSW,202,1.2,4.6,59,0.00,CLR,,0.00,WeatherDisplay:10.37,2013-02-25 18:57:00,
2013-02-25 14:02:00,40.6,27.0,30.02,South,180,4.3,4.6,58,0.00,CLR,,0.00,WeatherDisplay:10.37,2013-02-25 19:02:00,
2013-02-25 14:07:00,41.4,27.7,30.01,SE,135,6.1,6.1,58,0.00,CLR,,0.00,WeatherDisplay:10.37,2013-02-25 19:07:00,
2013-02-25 14:12:00,41.9,28.6,30.01,SSE,158,2.8,2.8,59,0.00,CLR,,0.00,WeatherDisplay:10.37,2013-02-25 19:12:00,
2013-02-25 14:17:00,41.4,25.0,30.02,ESE,112,4.0,4.0,52,0.00,CLR,,0.00,WeatherDisplay:10.37,2013-02-25 19:17:00,
2013-02-25 14:22:00,41.0,26.5,30.02,ESE,112,2.4,2.4,56,0.00,CLR,,0.00,WeatherDisplay:10.37,2013-02-25 19:22:00,
2013-02-25 14:27:00,40.6,26.6,30.02,South,180,0.9,2.3,57,0.00,CLR,,0.00,WeatherDisplay:10.37,2013-02-25 19:27:00,
2013-02-25 14:32:00,41.2,27.1,30.02,ESE,112,2.4,4.6,57,0.00,CLR,,0.00,WeatherDisplay:10.37,2013-02-25 19:32:00,
2013-02-25 14:37:00,41.5,27.0,30.02,SE,135,0.3,6.9,56,0.00,CLR,,0.00,WeatherDisplay:10.37,2013-02-25 19:37:00,
2013-02-25 14:42:00,41.2,26.7,30.02,South,180,0.0,3.5,56,0.00,CLR,,0.00,WeatherDisplay:10.37,2013-02-25 19:42:00,
2013-02-25 14:47:00,40.6,25.7,30.01,ESE,112,1.5,1.5,55,0.00,CLR,,0.00,WeatherDisplay:10.37,2013-02-25 19:47:00,
2013-02-25 14:53:00,41.4,26.4,30.00,SE,135,9.3,9.3,55,0.00,CLR,,0.00,WeatherDisplay:10.37,2013-02-25 19:53:00,
2013-02-25 14:58:00,41.9,26.4,30.01,SE,135,5.2,5.2,54,0.00,CLR,,0.00,WeatherDisplay:10.37,2013-02-25 19:58:00,
2013-02-25 15:03:00,41.9,26.9,30.01,SSE,158,7.0,7.0,55,0.00,CLR,,0.00,WeatherDisplay:10.37,2013-02-25 20:03:00,
2013-02-25 15:08:00,42.1,26.6,30.01,SSE,158,6.4,6.4,54,0.00,CLR,,0.00,WeatherDisplay:10.37,2013-02-25 20:08:00,
2013-02-25 15:13:00,41.2,24.4,30.01,East,90,1.5,2.3,51,0.00,CLR,,0.00,WeatherDisplay:10.37,2013-02-25 20:13:00,
2013-02-25 15:18:00,41.4,25.9,30.02,SSE,158,2.1,3.5,54,0.00,CLR,,0.00,WeatherDisplay:10.37,2013-02-25 20:18:00,
2013-02-25 15:23:00,41.5,24.7,30.02,ESE,112,2.5,2.5,51,0.00,CLR,,0.00,WeatherDisplay:10.37,2013-02-25 20:23:00,
2013-02-25 15:28:00,42.4,26.5,30.02,ESE,112,4.6,6.9,53,0.00,CLR,,0.00,WeatherDisplay:10.37,2013-02-25 20:28:00,
2013-02-25 15:33:00,42.1,25.7,30.02,SE,135,1.8,3.5,52,0.00,CLR,,0.00,WeatherDisplay:10.37,2013-02-25 20:33:00,
2013-02-25 15:38:00,42.4,27.0,30.02,ESE,112,1.8,2.3,54,0.00,CLR,,0.00,WeatherDisplay:10.37,2013-02-25 20:38:00,
2013-02-25 15:43:00,42.8,26.8,30.02,SSE,158,0.6,2.3,53,0.00,CLR,,0.00,WeatherDisplay:10.37,2013-02-25 20:43:00,
2013-02-25 15:48:00,43.7,27.2,30.02,ESE,112,4.9,4.9,52,0.00,CLR,,0.00,WeatherDisplay:10.37,2013-02-25 20:48:00,
2013-02-25 15:53:00,44.8,28.7,30.02,East,90,2.1,2.3,53,0.00,CLR,,0.00,WeatherDisplay:10.37,2013-02-25 20:53:00,
2013-02-25 15:58:00,44.6,26.6,30.01,SE,135,1.5,1.5,49,0.00,CLR,,0.00,WeatherDisplay:10.37,2013-02-25 20:58:00,
2013-02-25 16:03:00,44.8,27.3,30.01,ESE,112,1.5,2.3,50,0.00,CLR,,0.00,WeatherDisplay:10.37,2013-02-25 21:03:00,
2013-02-25 16:08:00,45.3,26.8,30.01,ESE,112,4.0,4.0,48,0.00,CLR,,0.00,WeatherDisplay:10.37,2013-02-25 21:08:00,
2013-02-25 16:13:00,45.5,24.8,30.01,ENE,68,1.5,3.5,44,0.00,CLR,,0.00,WeatherDisplay:10.37,2013-02-25 21:13:00,
2013-02-25 16:18:00,44.8,26.8,30.01,ESE,112,3.4,5.8,49,0.00,CLR,,0.00,WeatherDisplay:10.37,2013-02-25 21:18:00,
2013-02-25 16:23:00,45.5,27.9,30.02,ESE,112,1.8,4.6,50,0.00,CLR,,0.00,WeatherDisplay:10.37,2013-02-25 21:23:00,
2013-02-25 16:28:00,46.2,28.6,30.02,SE,135,1.2,3.5,50,0.00,CLR,,0.00,WeatherDisplay:10.37,2013-02-25 21:28:00,
2013-02-25 16:33:00,46.9,29.7,30.01,SE,135,3.7,3.7,51,0.00,CLR,,0.00,WeatherDisplay:10.37,2013-02-25 21:33:00,
2013-02-25 16:38:00,47.5,29.7,30.01,SSE,158,4.0,4.0,50,0.00,CLR,,0.00,WeatherDisplay:10.37,2013-02-25 21:38:00,
2013-02-25 16:43:00,47.5,29.3,30.02,SE,135,2.4,4.6,49,0.00,CLR,,0.00,WeatherDisplay:10.37,2013-02-25 21:43:00,
2013-02-25 16:48:00,46.8,28.6,30.02,SSE,158,5.2,5.2,49,0.00,CLR,,0.00,WeatherDisplay:10.37,2013-02-25 21:48:00,
2013-02-25 16:53:00,45.3,26.8,30.01,East,90,2.1,3.5,48,0.00,CLR,,0.00,WeatherDisplay:10.37,2013-02-25 21:53:00,
2013-02-25 16:58:00,45.0,26.4,30.02,ESE,112,1.2,2.3,48,0.00,CLR,,0.00,WeatherDisplay:10.37,2013-02-25 21:58:00,
2013-02-25 17:03:00,44.6,26.6,30.02,SE,135,3.1,3.1,49,0.00,CLR,,0.00,WeatherDisplay:10.37,2013-02-25 22:03:00,
2013-02-25 17:08:00,45.1,28.1,30.02,ESE,112,2.1,2.3,51,0.00,CLR,,0.00,WeatherDisplay:10.37,2013-02-25 22:08:00,
2013-02-25 17:13:00,46.8,29.1,30.02,ESE,112,1.8,3.5,50,0.00,CLR,,0.00,WeatherDisplay:10.37,2013-02-25 22:13:00,
2013-02-25 17:18:00,46.6,27.4,30.02,SSE,158,5.2,5.2,47,0.00,CLR,,0.00,WeatherDisplay:10.37,2013-02-25 22:18:00,
2013-02-25 17:23:00,46.2,28.1,30.02,ESE,112,2.8,2.8,49,0.00,CLR,,0.00,WeatherDisplay:10.37,2013-02-25 22:23:00,
2013-02-25 17:28:00,45.1,26.1,30.02,ESE,112,3.1,3.5,47,0.00,CLR,,0.00,WeatherDisplay:10.37,2013-02-25 22:28:00,
2013-02-25 17:33:00,43.7,25.3,30.02,ESE,112,1.5,3.5,48,0.00,CLR,,0.00,WeatherDisplay:10.37,2013-02-25 22:33:00,
2013-02-25 17:38:00,43.2,25.3,30.02,ESE,112,3.1,3.5,49,0.00,CLR,,0.00,WeatherDisplay:10.37,2013-02-25 22:38:00,
2013-02-25 17:43:00,42.3,24.4,30.02,SE,135,1.8,2.3,49,0.00,CLR,,0.00,WeatherDisplay:10.37,2013-02-25 22:43:00,
2013-02-25 17:48:00,41.2,23.4,30.02,SE,135,2.1,3.5,49,0.00,CLR,,0.00,WeatherDisplay:10.37,2013-02-25 22:48:00,
2013-02-25 17:53:00,40.5,23.3,30.02,ESE,112,1.2,1.2,50,0.00,CLR,,0.00,WeatherDisplay:10.37,2013-02-25 22:53:00,
2013-02-25 17:58:00,40.1,23.4,30.02,ESE,112,0.9,1.1,51,0.00,CLR,,0.00,WeatherDisplay:10.37,2013-02-25 22:58:00,
2013-02-25 18:03:00,39.4,22.7,30.02,ESE,112,0.9,2.3,51,0.00,CLR,,0.00,WeatherDisplay:10.37,2013-02-25 23:03:00,
2013-02-25 18:08:00,38.5,22.4,30.02,SE,135,0.6,1.1,52,0.00,CLR,,0.00,WeatherDisplay:10.37,2013-02-25 23:08:00,
2013-02-25 18:13:00,37.8,22.1,30.02,SE,135,0.3,0.3,53,0.00,CLR,,0.00,WeatherDisplay:10.37,2013-02-25 23:13:00,
2013-02-25 18:18:00,36.9,21.7,30.03,ESE,112,1.5,1.5,54,0.00,CLR,,0.00,WeatherDisplay:10.37,2013-02-25 23:18:00,
2013-02-25 18:23:00,36.3,21.7,30.02,ESE,112,0.6,1.1,55,0.00,CLR,,0.00,WeatherDisplay:10.37,2013-02-25 23:23:00,
2013-02-25 18:28:00,35.6,21.9,30.02,ESE,112,0.0,0.0,57,0.00,CLR,,0.00,WeatherDisplay:10.37,2013-02-25 23:28:00,
2013-02-25 18:33:00,34.9,21.6,30.02,ESE,112,0.6,1.1,58,0.00,CLR,,0.00,WeatherDisplay:10.37,2013-02-25 23:33:00,
2013-02-25 18:38:00,34.7,21.0,30.02,ESE,112,0.3,1.1,57,0.00,CLR,,0.00,WeatherDisplay:10.37,2013-02-25 23:38:00,
2013-02-25 18:43:00,34.3,21.1,30.02,ESE,112,0.3,0.3,58,0.00,CLR,,0.00,WeatherDisplay:10.37,2013-02-25 23:43:00,
2013-02-25 18:48:00,34.0,21.1,30.02,ESE,112,0.3,0.3,59,0.00,CLR,,0.00,WeatherDisplay:10.37,2013-02-25 23:48:00,
2013-02-25 18:53:00,33.6,20.8,30.02,ESE,112,0.0,0.0,59,0.00,CLR,,0.00,WeatherDisplay:10.37,2013-02-25 23:53:00,
2013-02-25 18:58:00,33.4,21.0,30.03,ESE,112,0.0,0.0,60,0.00,CLR,,0.00,WeatherDisplay:10.37,2013-02-25 23:58:00,
2013-02-25 19:03:00,33.3,20.9,30.03,ESE,112,0.3,0.3,60,0.00,CLR,,0.00,WeatherDisplay:10.37,2013-02-26 00:03:00,
2013-02-25 19:08:00,32.9,20.9,30.03,ESE,112,0.0,1.1,61,0.00,CLR,,0.00,WeatherDisplay:10.37,2013-02-26 00:08:00,
2013-02-25 19:13:00,32.7,20.7,30.03,ESE,112,0.0,1.1,61,0.00,CLR,,0.00,WeatherDisplay:10.37,2013-02-26 00:13:00,
2013-02-25 19:18:00,32.5,21.0,30.03,ESE,112,0.3,1.1,62,0.00,CLR,,0.00,WeatherDisplay:10.37,2013-02-26 00:18:00,
2013-02-25 19:23:00,32.4,20.8,30.04,ESE,112,0.0,0.0,62,0.00,CLR,,0.00,WeatherDisplay:10.37,2013-02-26 00:23:00,
2013-02-25 19:28:00,32.2,20.6,30.04,ESE,112,0.0,0.0,62,0.00,CLR,,0.00,WeatherDisplay:10.37,2013-02-26 00:28:00,
2013-02-25 19:33:00,31.8,20.6,30.04,ESE,112,0.0,0.0,63,0.00,CLR,,0.00,WeatherDisplay:10.37,2013-02-26 00:33:00,
2013-02-25 19:38:00,31.5,20.3,30.04,ESE,112,0.0,0.0,63,0.00,CLR,,0.00,WeatherDisplay:10.37,2013-02-26 00:38:00,
2013-02-25 19:43:00,31.3,20.5,30.03,ESE,112,0.3,1.1,64,0.00,CLR,,0.00,WeatherDisplay:10.37,2013-02-26 00:43:00,
2013-02-25 19:48:00,31.1,20.3,30.03,ESE,112,0.0,0.0,64,0.00,CLR,,0.00,WeatherDisplay:10.37,2013-02-26 00:48:00,
2013-02-25 19:53:00,30.7,20.4,30.02,ESE,112,1.5,1.5,65,0.00,CLR,,0.00,WeatherDisplay:10.37,2013-02-26 00:53:00,
2013-02-25 19:58:00,30.6,20.5,30.02,ESE,112,0.9,1.1,66,0.00,CLR,,0.00,WeatherDisplay:10.37,2013-02-26 00:58:00,
2013-02-25 20:03:00,30.6,20.5,30.02,SE,135,1.2,1.2,66,0.00,CLR,,0.00,WeatherDisplay:10.37,2013-02-26 01:03:00,
2013-02-25 20:08:00,30.7,20.7,30.02,ESE,112,1.8,2.3,66,0.00,CLR,,0.00,WeatherDisplay:10.37,2013-02-26 01:08:00,
2013-02-25 20:13:00,30.9,20.9,30.02,SE,135,3.4,3.5,66,0.00,CLR,,0.00,WeatherDisplay:10.37,2013-02-26 01:13:00,
2013-02-25 20:18:00,31.3,21.2,30.02,ESE,112,1.8,5.8,66,0.00,CLR,,0.00,WeatherDisplay:10.37,2013-02-26 01:18:00,
2013-02-25 20:23:00,31.3,21.2,30.02,SE,135,2.4,2.4,66,0.00,CLR,,0.00,WeatherDisplay:10.37,2013-02-26 01:23:00,
2013-02-25 20:28:00,31.5,21.4,30.03,SE,135,2.4,2.4,66,0.00,CLR,,0.00,WeatherDisplay:10.37,2013-02-26 01:28:00,
2013-02-25 20:33:00,31.5,21.4,30.03,SE,135,2.5,2.5,66,0.00,CLR,,0.00,WeatherDisplay:10.37,2013-02-26 01:33:00,
2013-02-25 20:38:00,31.5,21.4,30.02,SE,135,2.5,6.9,66,0.00,CLR,,0.00,WeatherDisplay:10.37,2013-02-26 01:38:00,
2013-02-25 20:43:00,31.6,21.6,30.02,SE,135,4.3,4.6,66,0.00,CLR,,0.00,WeatherDisplay:10.37,2013-02-26 01:43:00,
2013-02-25 20:48:00,31.6,21.6,30.02,SSE,158,4.9,4.9,66,0.00,CLR,,0.00,WeatherDisplay:10.37,2013-02-26 01:48:00,
2013-02-25 20:53:00,31.6,21.6,30.02,SE,135,2.8,5.8,66,0.00,CLR,,0.00,WeatherDisplay:10.37,2013-02-26 01:53:00,
2013-02-25 20:58:00,31.6,21.6,30.03,SSE,158,6.7,6.7,66,0.00,CLR,,0.00,WeatherDisplay:10.37,2013-02-26 01:58:00,
2013-02-25 21:03:00,31.6,21.6,30.02,SE,135,4.3,5.8,66,0.00,CLR,,0.00,WeatherDisplay:10.37,2013-02-26 02:03:00,
2013-02-25 21:08:00,31.6,21.6,30.02,SSE,158,3.7,5.8,66,0.00,CLR,,0.00,WeatherDisplay:10.37,2013-02-26 02:08:00,
2013-02-25 21:13:00,31.5,21.4,30.03,SSE,158,4.6,4.6,66,0.00,CLR,,0.00,WeatherDisplay:10.37,2013-02-26 02:13:00,
2013-02-25 21:18:00,31.6,21.6,30.03,SSE,158,2.5,3.5,66,0.00,CLR,,0.00,WeatherDisplay:10.37,2013-02-26 02:18:00,
2013-02-25 21:24:00,31.5,21.4,30.03,SE,135,2.4,3.5,66,0.00,CLR,,0.00,WeatherDisplay:10.37,2013-02-26 02:24:00,
2013-02-25 21:29:00,31.3,21.2,30.03,SE,135,5.2,5.2,66,0.00,CLR,,0.00,WeatherDisplay:10.37,2013-02-26 02:29:00,
2013-02-25 21:34:00,31.3,21.2,30.03,SE,135,1.2,3.5,66,0.00,CLR,,0.00,WeatherDisplay:10.37,2013-02-26 02:34:00,
2013-02-25 21:39:00,31.1,21.1,30.03,ESE,112,1.8,1.8,66,0.00,CLR,,0.00,WeatherDisplay:10.37,2013-02-26 02:39:00,
2013-02-25 21:44:00,30.9,20.9,30.02,SE,135,6.4,6.4,66,0.00,CLR,,0.00,WeatherDisplay:10.37,2013-02-26 02:44:00,
2013-02-25 21:49:00,30.9,20.9,30.02,SSE,158,6.7,6.7,66,0.00,CLR,,0.00,WeatherDisplay:10.37,2013-02-26 02:49:00,
2013-02-25 21:54:00,31.1,21.1,30.02,South,180,5.8,5.8,66,0.00,CLR,,0.00,WeatherDisplay:10.37,2013-02-26 02:54:00,
2013-02-25 21:59:00,31.1,21.1,30.02,SE,135,4.3,4.3,66,0.00,CLR,,0.00,WeatherDisplay:10.37,2013-02-26 02:59:00,
2013-02-25 22:04:00,31.1,21.1,30.02,SSE,158,3.4,5.8,66,0.00,CLR,,0.00,WeatherDisplay:10.37,2013-02-26 03:04:00,
2013-02-25 22:09:00,30.9,20.9,30.01,SE,135,4.9,8.1,66,0.00,CLR,,0.00,WeatherDisplay:10.37,2013-02-26 03:09:00,
2013-02-25 22:14:00,31.1,21.4,30.00,SE,135,6.1,6.1,67,0.00,CLR,,0.00,WeatherDisplay:10.37,2013-02-26 03:14:00,
2013-02-25 22:19:00,31.1,21.4,30.00,SSE,158,8.1,8.1,67,0.00,CLR,,0.00,WeatherDisplay:10.37,2013-02-26 03:19:00,
2013-02-25 22:24:00,31.3,21.6,30.00,South,180,3.7,4.6,67,0.00,CLR,,0.00,WeatherDisplay:10.37,2013-02-26 03:24:00,
2013-02-25 22:29:00,31.3,21.2,30.00,South,180,7.3,11.5,66,0.00,CLR,,0.00,WeatherDisplay:10.37,2013-02-26 03:29:00,
2013-02-25 22:34:00,31.3,21.2,29.99,SSW,202,4.3,6.9,66,0.00,CLR,,0.00,WeatherDisplay:10.37,2013-02-26 03:34:00,
2013-02-25 22:39:00,31.3,21.2,29.98,South,180,6.7,6.7,66,0.00,CLR,,0.00,WeatherDisplay:10.37,2013-02-26 03:39:00,
2013-02-25 22:44:00,31.3,21.2,29.98,SE,135,6.7,10.4,66,0.00,CLR,,0.00,WeatherDisplay:10.37,2013-02-26 03:44:00,
2013-02-25 22:49:00,31.3,21.2,29.99,SSE,158,6.7,12.7,66,0.00,CLR,,0.00,WeatherDisplay:10.37,2013-02-26 03:49:00,
2013-02-25 22:54:00,31.3,21.2,30.00,SE,135,9.0,9.0,66,0.00,CLR,,0.00,WeatherDisplay:10.37,2013-02-26 03:54:00,
2013-02-25 22:59:00,31.3,21.2,29.99,East,90,7.0,7.0,66,0.00,CLR,,0.00,WeatherDisplay:10.37,2013-02-26 03:59:00,
2013-02-25 23:04:00,31.3,21.2,29.99,South,180,6.4,6.9,66,0.00,CLR,,0.00,WeatherDisplay:10.37,2013-02-26 04:04:00,
2013-02-25 23:09:00,31.3,21.2,29.99,SSE,158,5.8,5.8,66,0.00,CLR,,0.00,WeatherDisplay:10.37,2013-02-26 04:09:00,
2013-02-25 23:14:00,31.3,21.2,30.01,SSE,158,5.8,6.9,66,0.00,CLR,,0.00,WeatherDisplay:10.37,2013-02-26 04:14:00,
2013-02-25 23:19:00,31.3,21.2,30.01,SE,135,8.1,10.4,66,0.00,CLR,,0.00,WeatherDisplay:10.37,2013-02-26 04:19:00,
2013-02-25 23:24:00,31.3,21.2,30.01,SSW,202,11.1,11.5,66,0.00,CLR,,0.00,WeatherDisplay:10.37,2013-02-26 04:24:00,
2013-02-25 23:29:00,31.3,21.2,30.01,SSE,158,9.9,10.4,66,0.00,CLR,,0.00,WeatherDisplay:10.37,2013-02-26 04:29:00,
2013-02-25 23:34:00,31.3,21.2,30.01,SSW,202,8.1,12.7,66,0.00,CLR,,0.00,WeatherDisplay:10.37,2013-02-26 04:34:00,
2013-02-25 23:39:00,31.3,21.2,30.01,South,180,12.6,12.6,66,0.00,CLR,,0.00,WeatherDisplay:10.37,2013-02-26 04:39:00,
2013-02-25 23:44:00,31.3,21.2,30.02,SE,135,9.9,9.9,66,0.00,CLR,,0.00,WeatherDisplay:10.37,2013-02-26 04:44:00,
2013-02-25 23:49:00,31.3,21.2,30.01,SSE,158,13.0,13.0,66,0.00,CLR,,0.00,WeatherDisplay:10.37,2013-02-26 04:49:00,
2013-02-25 23:54:00,31.1,21.4,30.01,SSE,158,6.1,6.9,67,0.00,CLR,,0.00,WeatherDisplay:10.37,2013-02-26 04:54:00,
2013-02-25 23:59:00,31.1,21.4,30.01,SSE,158,9.0,10.4,67,0.00,CLR,,0.00,WeatherDisplay:10.37,2013-02-26 04:59:00,